Date,TemperatureHighF,TemperatureAvgF,TemperatureLowF,DewpointHighF,DewpointAvgF,DewpointLowF,HumidityHigh,HumidityAvg,HumidityLow,PressureMaxIn,PressureMinIn,WindSpeedMaxMPH,WindSpeedAvgMPH,GustSpeedMaxMPH,PrecipitationSumIn
2013-7-1,76,63,57,61,57,54,92,81,56,30.01,29.88,13,4,13,0.00
2013-7-2,73,61,56,57,54,48,93,78,49,30.11,30.01,12,4,14,0.00
2013-7-3,75,61,55,56,52,48,86,75,52,30.14,30.05,12,5,13,0.00
2013-7-4,79,62,54,55,52,50,86,72,42,30.09,30.01,11,3,11,0.00
2013-7-5,83,64,54,58,53,50,88,72,39,30.01,29.94,7,2,10,0.00
2013-7-6,85,64,54,57,52,49,87,67,38,29.97,29.86,8,3,10,0.00
2013-7-7,72,61,53,58,53,50,91,76,58,29.93,29.86,6,2,8,0.00
2013-7-8,70,60,53,59,53,49,90,80,64,30.07,29.92,6,2,8,0.00
2013-7-9,71,59,52,59,52,49,93,79,58,30.10,29.99,11,4,15,0.00
2013-7-10,70,58,53,57,50,46,90,76,59,30.05,29.95,12,4,15,0.00
2013-7-11,69,59,52,54,48,45,81,67,52,30.06,29.97,10,3,10,0.00
2013-7-12,68,59,53,53,48,44,79,69,56,30.09,29.99,8,3,9,0.00
2013-7-13,71,60,51,54,49,45,80,69,53,30.18,30.09,8,3,8,0.00
2013-7-14,69,60,52,54,50,47,82,71,54,30.12,30.01,9,3,10,0.00
2013-7-15,80,66,53,55,49,44,83,57,30,30.06,29.90,6,2,9,0.00
2013-7-16,80,71,61,54,50,42,55,47,38,29.90,29.80,6,2,6,0.00
2013-7-17,72,66,58,58,53,50,76,64,52,30.17,29.84,9,3,11,0.00
2013-7-18,67,61,57,55,52,50,82,73,63,30.21,30.12,14,3,14,0.00
2013-7-19,65,59,54,56,53,50,87,80,71,30.15,30.03,10,4,12,0.00
2013-7-20,65,58,54,56,52,50,88,82,71,30.07,29.95,9,3,10,0.00
2013-7-21,67,58,54,58,53,50,88,83,72,29.96,29.90,7,2,9,0.00
2013-7-22,69,58,53,60,53,49,90,83,70,30.03,29.93,7,2,9,0.00
2013-7-23,72,59,52,62,53,50,92,81,63,30.06,29.98,9,3,13,0.00
2013-7-24,66,56,51,56,51,47,91,83,69,30.05,29.99,10,4,12,0.00
2013-7-25,70,59,52,59,53,49,92,80,65,30.10,30.00,11,4,11,0.00
2013-7-26,68,60,53,56,51,48,86,74,59,30.14,30.06,16,4,16,0.00
2013-7-27,72,60,49,57,51,45,86,72,52,30.13,29.98,10,2,10,0.00
2013-7-28,72,60,53,58,52,48,84,74,58,29.98,29.92,6,2,7,0.00
2013-7-29,66,58,52,56,51,48,86,80,68,29.99,29.94,7,2,8,0.00
2013-7-30,65,57,52,57,52,48,90,84,71,30.12,29.99,7,2,9,0.00
2013-7-31,67,57,53,58,52,49,91,85,71,30.10,29.98,7,2,7,0.00